Weather History for KSUA - February, 2013

Change the Weather History Date:

Tuesday, February 19, 2013

  Actual Average (KVRB) Record (KVRB)
Temperature  
Mean Temperature 70 °F 65 °F  
Max Temperature 78 °F 75 °F 87 °F (1992)
Min Temperature 62 °F 55 °F 32 °F (1958)
Degree Days  
Heating Degree Days 0 3  
Month to date heating degree days 71  
Since 1 July heating degree days 358  
Cooling Degree Days 5 3  
Month to date cooling degree days 49  
Year to date cooling degree days 110  
Growing Degree Days 20 (Base 50)    
Moisture  
Dew Point 57 °F    
Average Humidity 69    
Maximum Humidity 88    
Minimum Humidity 39    
Precipitation  
Precipitation 0.08 in 0.08 in 1.43 in (1968)
Month to date precipitation 1.76  
Year to date precipitation 4.26  
Sea Level Pressure  
Sea Level Pressure 30.17 in    
Wind  
Wind Speed 8 mph (SSE)    
Max Wind Speed 14 mph    
Max Gust Speed 21 mph    
Visibility 10 miles    
Events Rain    
T = Trace of Precipitation, MM = Missing Value Source: NWS Daily Summary

Daily Weather History Graph

Daily Weather History Graph

Search for Another Location

Airport or City:

Trip Planner

Search our weather history database for the weather conditions in past years. The results will help you decide how hot, cold, wet, or windy it might be!

Date:

Astronomy

Feb. 19, 2013 Rise Set
Actual Time 6:54 AM EST 6:15 PM EST
Civil Twilight 6:30 AM EST 6:39 PM EST
Nautical Twilight 6:03 AM EST 7:06 PM EST
Astronomical Twilight 5:36 AM EST 7:33 PM EST
Moon 1:02 PM EST (2/19) 2:08 AM EST (2/19)
Length of Visible Light 12h 08m
Length of Day
11h 21m
Waxing Gibbous, 67% of the Moon is Illuminated
Feb 19
Waxing Gibbous
Feb 25
Full
Mar 4
Last Quarter
Mar 11
New
Mar 19
First Quarter

Hourly Weather History & Observations

Time (EST) Temp. Dew Point Humidity Pressure Visibility Wind Dir Wind Speed Gust Speed Precip Events Conditions
12:15 AM 64.4 °F 50.0 °F 59% 30.23 in 10.0 mi ESE 9.2 mph - N/A   Scattered Clouds
12:35 AM 64.4 °F 50.0 °F 59% 30.23 in 10.0 mi ESE 10.4 mph - N/A   Scattered Clouds
12:55 AM 64.4 °F 50.0 °F 59% 30.22 in 10.0 mi ESE 11.5 mph - N/A   Scattered Clouds
1:15 AM 64.4 °F 50.0 °F 59% 30.23 in 10.0 mi ESE 9.2 mph - N/A   Mostly Cloudy
1:35 AM 66.2 °F 50.0 °F 56% 30.22 in 10.0 mi ESE 13.8 mph 17.3 mph N/A   Overcast
1:55 AM 66.2 °F 50.0 °F 56% 30.21 in 10.0 mi ESE 10.4 mph - N/A   Overcast
2:15 AM 66.2 °F 51.8 °F 60% 30.20 in 10.0 mi ESE 11.5 mph - N/A   Mostly Cloudy
2:35 AM 66.2 °F 51.8 °F 60% 30.20 in 10.0 mi ESE 12.7 mph - N/A   Mostly Cloudy
2:55 AM 66.2 °F 53.6 °F 64% 30.19 in 10.0 mi SE 11.5 mph - N/A   Overcast
3:15 AM 66.2 °F 53.6 °F 64% 30.18 in 10.0 mi SE 13.8 mph 20.7 mph N/A   Overcast
3:35 AM 66.2 °F 53.6 °F 64% 30.18 in 10.0 mi SE 11.5 mph - N/A   Overcast
3:55 AM 68.0 °F 55.4 °F 64% 30.18 in 10.0 mi SE 11.5 mph 17.3 mph N/A   Mostly Cloudy
4:15 AM 68.0 °F 55.4 °F 64% 30.18 in 10.0 mi SE 10.4 mph - N/A   Overcast
4:35 AM 68.0 °F 57.2 °F 68% 30.18 in 10.0 mi SSE 8.1 mph - N/A   Overcast
4:55 AM 66.2 °F 57.2 °F 73% 30.18 in 10.0 mi SE 6.9 mph - N/A   Overcast
5:15 AM 66.2 °F 59.0 °F 78% 30.18 in 10.0 mi South 4.6 mph - N/A   Mostly Cloudy
6:47 AM 62.6 °F 57.2 °F 82% 30.20 in 7.0 mi Calm Calm - N/A   Scattered Clouds
7:47 AM 62.6 °F 57.2 °F 82% 30.21 in 10.0 mi Calm Calm - N/A   Scattered Clouds
8:47 AM - - N/A% 30.21 in 10.0 mi South 3.5 mph - N/A   Partly Cloudy
9:47 AM 73.4 °F 53.6 °F 50% 30.21 in 10.0 mi South 11.5 mph - N/A   Partly Cloudy
10:47 AM 75.2 °F 51.8 °F 44% 30.21 in 10.0 mi SSE 9.2 mph - N/A   Scattered Clouds
11:47 AM 77.0 °F 51.8 °F 41% 30.20 in 7.0 mi South 9.2 mph - N/A   Mostly Cloudy
12:47 PM 78.8 °F 51.8 °F 39% 30.17 in 7.0 mi South 8.1 mph - N/A   Mostly Cloudy
2:47 PM 78.8 °F 53.6 °F 42% 30.11 in 10.0 mi SW 6.9 mph - N/A   Mostly Cloudy
4:47 PM 78.8 °F 55.4 °F 44% 30.09 in 7.0 mi SW 8.1 mph - N/A   Scattered Clouds
5:47 PM 75.2 °F 62.6 °F 65% 30.10 in 7.0 mi SSE 9.2 mph - N/A   Scattered Clouds
7:35 PM 69.8 °F 64.4 °F 83% 30.13 in 10.0 mi Calm Calm - 0.08 in Rain Light Rain
8:35 PM 69.8 °F 66.2 °F 88% 30.13 in 10.0 mi SSW 5.8 mph - N/A   Overcast
8:55 PM 69.8 °F 64.4 °F 83% 30.13 in 10.0 mi SSW 4.6 mph - N/A   Overcast
9:15 PM 69.8 °F 64.4 °F 83% 30.13 in 10.0 mi SSW 3.5 mph - N/A   Overcast
9:35 PM 68.0 °F 64.4 °F 88% 30.14 in 10.0 mi SW 3.5 mph - N/A   Scattered Clouds
9:55 PM 68.0 °F 64.4 °F 88% 30.14 in 10.0 mi SSW 3.5 mph - N/A   Mostly Cloudy
10:15 PM 68.0 °F 64.4 °F 88% 30.15 in 10.0 mi SW 3.5 mph - N/A   Overcast
10:35 PM 68.0 °F 64.4 °F 88% 30.15 in 10.0 mi Calm Calm - N/A   Overcast
10:55 PM 68.0 °F 64.4 °F 88% 30.14 in 10.0 mi WSW 3.5 mph - N/A   Overcast
11:15 PM 68.0 °F 64.4 °F 88% 30.13 in 10.0 mi SW 3.5 mph - N/A   Overcast
11:35 PM 68.0 °F 64.4 °F 88% 30.13 in 10.0 mi WSW 4.6 mph - N/A   Mostly Cloudy
11:55 PM 68.0 °F 64.4 °F 88% 30.12 in 10.0 mi SW 3.5 mph - N/A   Mostly Cloudy